[[{"header":{"parameterUnit":"m.s-1","parameterCategory":1,"la1":30.2991,"la2":30.254,"lo1":-89.0895,"lo2":-89.0444,"dy":0.0017,"dx":0.0017,"nx":28,"ny":28,"refTime":"2026-02-03T09:00:00:Z","depth":0,"parameterNumber":2,"parameterNumberName":"U-component_of_WINDS"},"data":[0,0,0,0,0,0,0,0,0,0,0,0,0,0,0,0,0,0,0,0,0,0,0,0,0,0,0,0,0,0,0,0,0,0,0,0,0,0,0,0,0,0,0,0,0,0,0,0,0,0,0,0,0,0,0,0,0,0,2.9219,2.922,0,2.9257,2.9258,2.9258,2.923,2.9229,2.9228,2.9227,2.9264,2.9266,2.9268,0,0,0,0,0,0,0,0,0,0,0,0,0,2.9123,2.9125,2.9219,2.922,2.922,2.9257,2.9258,2.9258,2.9231,2.9229,2.9228,2.9226,2.9263,2.9266,2.9268,0,0,0,0,0,0,0,0,0,0,0,0,0,2.9163,2.9125,2.9219,2.9211,2.9211,2.9257,2.9258,2.9258,2.9231,2.9229,2.9227,2.9226,2.9263,2.9266,2.9269,2.9325,0,0,2.9279,2.928,0,0,0,0,0,0,0,0,2.9161,2.9167,2.9212,2.9212,2.9211,2.9237,2.9237,2.9281,2.9231,2.9223,2.9227,2.9225,2.9257,2.926,2.9271,2.9327,2.9328,2.9279,2.9281,2.9282,2.9283,0,0,0,0,0,0,0,2.9158,2.9165,2.9234,2.9212,2.9212,2.9205,2.9209,2.9245,2.925,2.9224,2.9222,2.9227,2.9256,2.9268,2.9272,2.9329,2.9279,2.9282,2.9284,2.9285,2.9434,2.9436,0,0,0,0,0,0,2.9156,2.9163,2.9233,2.9235,2.9181,2.9209,2.9213,2.9231,2.9249,2.925,2.9228,2.9225,2.9264,2.9268,2.9273,2.9341,2.9282,2.9285,2.9287,2.9432,2.9434,2.9436,0,0,0,0,0,0,2.9154,2.9163,2.9231,2.9199,2.9207,2.9212,2.9233,2.9232,2.9244,2.9253,2.9253,2.924,2.9262,2.9269,2.9313,2.9341,2.9287,2.9289,2.9429,2.9432,2.9435,2.9476,0,0,0,0,0,0,2.9152,2.9162,2.9183,2.9199,2.9209,2.927,2.9234,2.9235,2.925,2.9247,2.9264,2.9265,2.9261,2.9308,2.9316,2.9345,2.9292,2.9427,2.9431,2.9434,2.9472,2.948,2.9487,0,0,0,0,0,2.9148,2.9193,2.9185,2.9193,2.9235,2.9272,2.9277,2.9273,2.9253,2.9274,2.928,2.9264,2.9337,2.9313,2.9321,2.9352,2.9425,2.943,2.9434,2.9468,2.9478,2.9486,0,0,0,0,0,0,2.9179,2.9194,2.9186,2.9236,2.9253,2.9267,2.9294,2.9284,2.9306,2.9302,2.9296,2.93,2.9346,2.9353,2.9326,2.9408,2.9378,2.9384,2.9401,2.941,2.9418,2.9414,2.9295,0,0,0,0,0,2.9192,2.922,2.9232,2.9276,2.9285,2.9289,2.9304,2.93,2.9317,2.9324,2.9332,2.9349,2.9376,2.9394,2.9419,2.9473,2.9477,2.9498,2.9506,2.9512,2.9517,2.9548,2.9558,2.9452,2.9451,2.9451,0,0,2.9218,2.923,2.9248,2.9283,2.9295,2.9325,2.9294,2.9327,2.9349,2.9328,2.9371,2.9378,2.9396,2.9446,2.9469,2.9454,2.9548,2.9518,2.9523,2.9525,2.9554,2.9564,2.9573,2.9455,2.9454,2.9454,0,0,2.9281,2.9293,2.9331,2.9345,2.9365,2.9367,2.9377,2.9393,2.9397,2.944,2.9425,2.9452,2.9498,2.9512,2.9526,2.9597,2.9584,2.9606,2.9644,2.9674,2.9682,2.9689,2.9715,2.9724,2.9611,2.9611,2.9611,0,2.9311,2.9356,2.9352,2.9387,2.9402,2.9386,2.9425,2.9439,2.9466,2.9477,2.946,2.9519,2.953,2.9584,2.9602,2.9613,2.9624,2.9603,2.9681,2.9688,2.9695,2.972,2.973,2.9614,2.9614,2.9613,2.9613,0,2.9392,2.9423,2.9452,2.948,2.9499,2.9535,2.9537,2.9557,2.9552,2.9556,2.9601,2.9614,2.9642,2.9655,2.965,2.9708,2.9699,2.9682,2.9651,2.9708,2.9731,2.974,2.9617,2.9616,2.9616,2.9615,0,0,2.9473,2.95,2.9511,2.9524,2.9546,2.957,2.9606,2.9635,2.9652,2.9672,2.9703,2.9744,2.9729,2.9744,2.974,2.9767,2.9823,2.9746,2.9747,2.976,2.9889,2.9902,2.9913,2.9815,2.9817,2.9818,2.9888,0,2.9537,2.9601,2.96,2.9659,2.9689,2.9675,2.9707,2.9724,2.973,2.9756,2.9762,2.9791,2.9769,2.9778,2.9804,2.9811,2.9849,2.9806,2.9843,2.9845,2.9838,2.9924,2.9937,3.0002,2.9897,2.9898,2.99,0,2.962,2.9644,2.9707,2.9726,2.9738,2.9767,2.9794,2.9819,2.9839,2.9841,2.986,2.9852,2.989,2.986,2.9912,2.9882,2.9898,2.9904,2.9907,2.9909,2.9875,2.9929,3.0022,3.0032,2.9914,2.9912,2.9911,0,2.9674,2.9722,2.9765,2.9777,2.98,2.9821,2.9832,2.985,2.9868,2.9891,2.9903,2.9931,2.9946,2.9967,2.9968,2.9946,3.0021,2.999,3.0024,3.0024,3.0039,3.0038,3.0136,3.005,3.005,3.005,3.005,0,2.9745,2.9784,2.979,2.9817,2.986,2.9859,2.9902,2.9911,2.9928,2.9956,2.9946,2.9973,2.9973,3.0001,3.0002,3.0045,3.0052,3.0055,3.0055,3.0056,3.0055,3.0065,3.006,3.0053,3.0052,3.0052,3.0051,0,2.9811,2.9817,2.9864,2.9883,2.9889,2.992,2.9936,2.9962,2.9968,3.0005,3.0013,3.0022,3.0054,3.0058,3.0095,3.0096,3.0148,3.0143,3.0142,3.0141,3.0174,3.0171,3.0281,3.0295,3.0201,3.0202,3.0203,0,2.9856,2.9886,2.9909,2.9928,2.994,2.997,2.9989,2.999,3.001,3.0036,3.0059,3.0091,3.0116,3.0168,3.0178,3.0207,3.0202,3.0239,3.0207,3.0207,3.0203,3.0201,3.0204,3.0245,3.0246,3.0247,3.0248,0,2.9935,2.9937,2.9965,2.9994,3.0017,3.004,3.0061,3.0077,3.0081,3.0104,3.0137,3.0157,3.0196,3.0228,3.0257,3.0268,3.0259,3.0258,3.0268,3.0268,3.0266,3.0268,3.0158,3.0255,3.0254,3.0254,3.0254,3.0253,2.9992,3.0018,3.0039,3.0071,3.0087,3.0108,3.0134,3.0144,3.0172,3.0204,3.0203,3.024,3.0261,3.0299,3.0313,3.0342,3.033,3.0343,3.0346,3.035,3.0353,3.0262,3.0347,3.0347,3.0347,3.0347,3.0347,0,3.0071,3.0084,3.0113,3.0144,3.0169,3.016,3.0183,3.0205,3.0238,3.0258,3.0284,3.0324,3.0355,3.0368,3.0399,3.042,3.0417,3.0428,3.0426,3.0429,3.0362,3.0351,3.043,3.043,3.043,3.043,3.043,3.043,3.0115,3.0159,3.0164,3.0217,3.023,3.0266,3.0281,3.03,3.0317,3.0361,3.0388,3.0397,3.0414,3.0447,3.0476,3.0479,3.049,3.0504,3.0505,3.0442,3.0434,3.0425,3.0415,3.0507,3.0507,3.057,3.057,3.0571]},{"header":{"parameterUnit":"m.s-1","parameterCategory":1,"la1":30.2991,"la2":30.254,"lo1":-89.0895,"lo2":-89.0444,"dy":0.0017,"dx":0.0017,"nx":28,"ny":28,"refTime":"2026-02-03T09:00:00:Z","depth":0,"parameterNumber":3,"parameterNumberName":"V-component_of_WINDS"},"data":[0,0,0,0,0,0,0,0,0,0,0,0,0,0,0,0,0,0,0,0,0,0,0,0,0,0,0,0,0,0,0,0,0,0,0,0,0,0,0,0,0,0,0,0,0,0,0,0,0,0,0,0,0,0,0,0,0,0,-7.3931,-7.3932,0,-7.4105,-7.4107,-7.4109,-7.4032,-7.4028,-7.4024,-7.402,-7.4193,-7.4202,-7.421,0,0,0,0,0,0,0,0,0,0,0,0,0,-7.3526,-7.3534,-7.393,-7.3933,-7.3935,-7.4105,-7.4107,-7.4109,-7.4033,-7.4028,-7.4023,-7.4018,-7.419,-7.4201,-7.4211,0,0,0,0,0,0,0,0,0,0,0,0,0,-7.3701,-7.3537,-7.393,-7.3917,-7.3918,-7.4104,-7.4107,-7.411,-7.4034,-7.4028,-7.4021,-7.4015,-7.4187,-7.42,-7.4212,-7.442,0,0,-7.4252,-7.4257,0,0,0,0,0,0,0,0,-7.3691,-7.3716,-7.3917,-7.3919,-7.392,-7.4041,-7.4028,-7.4214,-7.4036,-7.399,-7.402,-7.4012,-7.4147,-7.4163,-7.421,-7.4428,-7.4435,-7.4253,-7.4261,-7.4266,-7.427,0,0,0,0,0,0,0,-7.3679,-7.3708,-7.3999,-7.392,-7.3922,-7.3901,-7.3919,-7.4063,-7.4102,-7.3993,-7.3988,-7.401,-7.4147,-7.4197,-7.4213,-7.4438,-7.4252,-7.4264,-7.4272,-7.4277,-7.4835,-7.4842,0,0,0,0,0,0,-7.3668,-7.3699,-7.3994,-7.4004,-7.3788,-7.3914,-7.3934,-7.4008,-7.41,-7.4108,-7.4016,-7.4006,-7.4179,-7.4198,-7.4219,-7.4469,-7.4266,-7.4278,-7.4286,-7.4828,-7.4837,-7.4845,0,0,0,0,0,0,-7.366,-7.3695,-7.3987,-7.385,-7.3886,-7.3928,-7.4012,-7.4015,-7.4066,-7.4117,-7.4123,-7.4061,-7.4174,-7.4201,-7.4371,-7.4473,-7.4284,-7.4296,-7.482,-7.4831,-7.4841,-7.4969,0,0,0,0,0,0,-7.3648,-7.3692,-7.3773,-7.3853,-7.3894,-7.4138,-7.4018,-7.4023,-7.4089,-7.4078,-7.4161,-7.4169,-7.4171,-7.4352,-7.4384,-7.4488,-7.4306,-7.4811,-7.4825,-7.4837,-7.4956,-7.4983,-7.5006,0,0,0,0,0,-7.3634,-7.3801,-7.3777,-7.3813,-7.3995,-7.4144,-7.4167,-7.4168,-7.4097,-7.4178,-7.4211,-7.4166,-7.4457,-7.437,-7.4405,-7.4515,-7.4804,-7.4821,-7.4836,-7.4945,-7.4978,-7.5005,0,0,0,0,0,0,-7.373,-7.3811,-7.3786,-7.3984,-7.4058,-7.4131,-7.4232,-7.4203,-7.4297,-7.4283,-7.4278,-7.4298,-7.4474,-7.4511,-7.4413,-7.472,-7.462,-7.4643,-7.469,-7.4722,-7.4746,-7.4734,-7.4316,0,0,0,0,0,-7.3774,-7.389,-7.3954,-7.4122,-7.4161,-7.4191,-7.4255,-7.425,-7.4325,-7.4356,-7.4401,-7.4475,-7.4583,-7.4654,-7.4756,-7.4961,-7.4977,-7.5053,-7.5078,-7.5098,-7.5119,-7.523,-7.5264,-7.4897,-7.4897,-7.4897,0,0,-7.3867,-7.3925,-7.3998,-7.4143,-7.4199,-7.4318,-7.4217,-7.4346,-7.4434,-7.4375,-7.4539,-7.4575,-7.4657,-7.4845,-7.493,-7.4881,-7.5224,-7.5119,-7.5134,-7.5144,-7.525,-7.5285,-7.5316,-7.4908,-7.4906,-7.4904,0,0,-7.4096,-7.4152,-7.4299,-7.4358,-7.4446,-7.4465,-7.45,-7.4578,-7.4601,-7.4766,-7.4724,-7.4827,-7.5013,-7.5074,-7.5128,-7.5382,-7.5344,-7.5415,-7.5545,-7.5654,-7.5683,-7.5708,-7.5799,-7.5831,-7.5435,-7.5435,-7.5435,0,-7.4199,-7.4378,-7.4377,-7.4511,-7.4576,-7.453,-7.4678,-7.4735,-7.4851,-7.4896,-7.4839,-7.5073,-7.5125,-7.5327,-7.5389,-7.5435,-7.5474,-7.5405,-7.5679,-7.5704,-7.5728,-7.5815,-7.5849,-7.5443,-7.5442,-7.5442,-7.5441,0,-7.4501,-7.4625,-7.4733,-7.4849,-7.4925,-7.5065,-7.5085,-7.5162,-7.515,-7.5175,-7.5343,-7.5404,-7.5518,-7.5565,-7.5554,-7.5766,-7.5733,-7.5678,-7.5577,-7.5772,-7.5853,-7.5886,-7.5455,-7.5452,-7.545,-7.5448,0,0,-7.4795,-7.491,-7.4949,-7.5002,-7.5095,-7.5191,-7.5328,-7.5442,-7.5508,-7.559,-7.5705,-7.5864,-7.5814,-7.5876,-7.5871,-7.5966,-7.6164,-7.59,-7.5901,-7.5947,-7.6401,-7.6443,-7.6481,-7.6139,-7.6145,-7.615,-7.6395,0,-7.5032,-7.5275,-7.5279,-7.5502,-7.5617,-7.5575,-7.5694,-7.5764,-7.5791,-7.5891,-7.5918,-7.6032,-7.5957,-7.5995,-7.6087,-7.612,-7.6255,-7.6102,-7.6245,-7.625,-7.6227,-7.6524,-7.6568,-7.6795,-7.6426,-7.6432,-7.6436,0,-7.534,-7.5434,-7.567,-7.5748,-7.5796,-7.5904,-7.6008,-7.6105,-7.6183,-7.6195,-7.6266,-7.6247,-7.6386,-7.628,-7.6471,-7.6368,-7.6426,-7.6451,-7.646,-7.6473,-7.6355,-7.6546,-7.6868,-7.6903,-7.6485,-7.6481,-7.6478,0,-7.5533,-7.5717,-7.5882,-7.5928,-7.6023,-7.61,-7.6143,-7.6214,-7.6283,-7.6373,-7.6417,-7.6522,-7.658,-7.6661,-7.667,-7.6593,-7.6863,-7.6758,-7.6876,-7.6876,-7.6935,-7.6931,-7.7272,-7.6972,-7.6972,-7.6971,-7.697,0,-7.5797,-7.5942,-7.597,-7.6072,-7.6233,-7.6235,-7.6395,-7.6431,-7.6495,-7.6602,-7.6571,-7.6671,-7.6677,-7.678,-7.6788,-7.6945,-7.6971,-7.6984,-7.6984,-7.6987,-7.6986,-7.7026,-7.701,-7.698,-7.6978,-7.6976,-7.6975,0,-7.6039,-7.6063,-7.624,-7.6316,-7.6339,-7.6455,-7.6519,-7.6615,-7.6638,-7.6774,-7.6806,-7.6842,-7.6962,-7.6979,-7.7118,-7.7123,-7.7312,-7.7295,-7.7287,-7.7285,-7.7402,-7.7391,-7.7781,-7.7832,-7.7498,-7.7501,-7.7504,0,-7.6206,-7.6318,-7.6406,-7.6477,-7.6524,-7.6637,-7.6707,-7.6714,-7.6787,-7.6885,-7.697,-7.7086,-7.718,-7.7372,-7.741,-7.7516,-7.7502,-7.7632,-7.7518,-7.7518,-7.7505,-7.7499,-7.751,-7.7654,-7.7657,-7.766,-7.7663,0,-7.6501,-7.6508,-7.6611,-7.672,-7.6805,-7.6889,-7.6969,-7.7028,-7.7044,-7.7128,-7.7251,-7.7324,-7.7467,-7.7583,-7.7689,-7.773,-7.77,-7.7698,-7.7731,-7.7736,-7.7726,-7.7734,-7.7347,-7.7689,-7.7687,-7.7685,-7.7683,-7.7682,-7.6711,-7.6809,-7.6887,-7.7003,-7.7064,-7.714,-7.7235,-7.7271,-7.7374,-7.7492,-7.7489,-7.7624,-7.7698,-7.7837,-7.7887,-7.7991,-7.7949,-7.7997,-7.8009,-7.8021,-7.8033,-7.771,-7.801,-7.801,-7.8009,-7.8008,-7.8008,0,-7.7005,-7.7054,-7.7161,-7.7275,-7.7366,-7.733,-7.7417,-7.7495,-7.7615,-7.7688,-7.7782,-7.7923,-7.8035,-7.8083,-7.8193,-7.8267,-7.8256,-7.8296,-7.8291,-7.8301,-7.8064,-7.8025,-7.8304,-7.8304,-7.8304,-7.8303,-7.8303,-7.8303,-7.7169,-7.7332,-7.7349,-7.7541,-7.7588,-7.7722,-7.7775,-7.7844,-7.7902,-7.8062,-7.8156,-7.8187,-7.825,-7.8364,-7.8465,-7.8476,-7.8518,-7.8565,-7.857,-7.8348,-7.8318,-7.8289,-7.8252,-7.8574,-7.8574,-7.8798,-7.88,-7.8801]}]]